7 * 24
多渠道服务支持
STARLINK-6226 是 SpaceX 旗下星链(Starlink)卫星互联网项目中的一颗低轨通信卫星。该卫星属于星链计划的第 22 批次部署任务,旨在为全球用户提供高速、低延迟的互联网服务。它运行在约 550 公里的近地轨道,采用先进的通信技术,支持宽带数据传输。星链项目计划发射数万颗卫星,构建覆盖全球的卫星网络,尤其服务于偏远和网络基础设施薄弱的地区。STARLINK-6226 的发射和运行有助于提升星链系统的覆盖密度与服务质量。
  
                美国
                (US)
                | 数据来源 | 国际轨道数据 | AOE轨道数据 | 
| 星历时间 | 2025-11-02T17:34:45+0800 1天前 查看轨道信息 | 2025-11-02T14:00:00+0800 2天前 查看轨道信息 | 
| 半长轴 | 6937.22km | 6937.245km | 
| 偏心率 | 0.0001268 | 0.0001432 | 
| 轨道倾角 | 43.004° | 43.002° | 
| 近地点辐角 | 270.760° | 258.734° | 
| 升交点赤经 | 194.456° | 195.266° | 
| 平近点角 | 89.310° | 13.716° | 
| 近地点 | 558.205km | 558.116km | 
| 远地点 | 559.965km | 560.104km | 
| 周期 | 95.838分钟 | 95.839分钟 | 
| 每日圈数 | 15.02535 | 15.025268 |